QPF
0.00 0.00 0.00 0.00 0.01 0.03 0.03 0.02 0.03 0.03 0.04 0.03 0.03 0.04 0.08 0.11 0.14 0.17 0.20 0.22 0.21 0.19 0.20 0.21 0.21 0.18 0.16 0.15 0.14 0.13 0.13 0.13 0.13 0.12 0.10 0.07 0.05 0.04 0.04 0.04 0.04 0.04 0.03
0.00 0.00 0.01 0.01 0.01 0.03 0.06 0.08 0.07 0.07 0.07 0.08 0.09 0.11 0.16 0.19 0.19 0.21 0.25 0.27 0.27 0.25 0.26 0.27 0.28 0.27 0.24 0.20 0.17 0.15 0.13 0.13 0.13 0.13 0.13 0.11 0.08 0.05 0.03 0.03 0.03 0.03 0.03
0.00 0.00 0.01 0.01 0.02 0.03 0.04 0.06 0.09 0.12 0.14 0.15 0.16 0.22 0.29 0.29 0.26 0.25 0.27 0.28 0.26 0.25 0.26 0.30 0.33 0.30 0.27 0.23 0.21 0.17 0.15 0.13 0.11 0.11 0.13 0.13 0.11 0.07 0.04 0.03 0.02 0.02 0.02
0.01 0.01 0.01 0.01 0.02 0.03 0.04 0.04 0.08 0.15 0.20 0.25 0.26 0.26 0.29 0.31 0.32 0.33 0.31 0.30 0.30 0.30 0.31 0.36 0.39 0.38 0.31 0.23 0.17 0.14 0.13 0.14 0.14 0.13 0.11 0.08 0.07 0.06 0.05 0.03 0.02 0.02 0.02
0.01 0.01 0.01 0.02 0.02 0.03 0.04 0.05 0.09 0.18 0.24 0.28 0.33 0.34 0.34 0.36 0.38 0.36 0.32 0.31 0.31 0.32 0.34 0.38 0.38 0.33 0.29 0.23 0.18 0.14 0.13 0.12 0.11 0.10 0.09 0.07 0.05 0.04 0.04 0.03 0.02 0.02 0.02
0.01 0.01 0.01 0.01 0.02 0.03 0.03 0.04 0.09 0.16 0.18 0.20 0.28 0.30 0.37 0.45 0.49 0.48 0.43 0.38 0.35 0.33 0.33 0.31 0.28 0.23 0.20 0.16 0.13 0.12 0.11 0.10 0.08 0.07 0.06 0.04 0.04 0.04 0.04 0.04 0.03 0.03 0.02
0.01 0.01 0.01 0.02 0.02 0.03 0.04 0.05 0.07 0.11 0.12 0.14 0.20 0.27 0.33 0.38 0.43 0.43 0.39 0.34 0.32 0.29 0.26 0.22 0.20 0.18 0.17 0.14 0.11 0.09 0.08 0.07 0.06 0.05 0.04 0.04 0.04 0.04 0.04 0.05 0.05 0.05 0.04
0.02 0.02 0.02 0.02 0.03 0.03 0.03 0.05 0.07 0.10 0.12 0.13 0.16 0.19 0.23 0.30 0.33 0.32 0.29 0.26 0.23 0.19 0.15 0.15 0.14 0.11 0.09 0.08 0.07 0.07 0.07 0.06 0.05 0.04 0.03 0.03 0.04 0.04 0.05 0.05 0.05 0.05 0.05
0.02 0.02 0.02 0.02 0.02 0.02 0.02 0.04 0.06 0.09 0.11 0.11 0.13 0.15 0.17 0.19 0.20 0.22 0.24 0.23 0.19 0.16 0.13 0.12 0.11 0.09 0.07 0.05 0.04 0.04 0.04 0.04 0.04 0.05 0.05 0.05 0.05 0.06 0.06 0.06 0.06 0.05 0.04
0.02 0.02 0.02 0.02 0.02 0.02 0.03 0.04 0.03 0.04 0.05 0.06 0.07 0.09 0.11 0.14 0.15 0.13 0.14 0.15 0.15 0.15 0.15 0.14 0.13 0.11 0.08 0.06 0.04 0.03 0.03 0.03 0.04 0.04 0.04 0.03 0.03 0.03 0.03 0.03 0.03 0.02 0.03
0.01 0.01 0.01 0.01 0.02 0.02 0.03 0.03 0.03 0.04 0.03 0.03 0.04 0.06 0.07 0.10 0.12 0.12 0.12 0.13 0.14 0.14 0.13 0.11 0.09 0.08 0.06 0.05 0.03 0.02 0.02 0.02 0.02 0.01 0.01 0.02 0.02 0.02 0.02 0.01 0.01 0.02 0.02
0.01 0.01 0.01 0.01 0.01 0.02 0.02 0.03 0.03 0.03 0.03 0.03 0.03 0.03 0.05 0.06 0.08 0.09 0.11 0.12 0.12 0.12 0.10 0.08 0.07 0.05 0.03 0.02 0.02 0.01 0.01 0.01 0.01 0.01 0.01 0.01 0.01 0.01 0.01 0.01 0.01 0.01 0.01
0.02 0.01 0.01 0.01 0.01 0.02 0.02 0.02 0.02 0.02 0.03 0.03 0.04 0.05 0.05 0.06 0.05 0.06 0.07 0.07 0.07 0.07 0.05 0.03 0.02 0.01 0.01 0.01 0.00 0.00 0.00 0.00 0.00 0.00 0.00 0.00 0.01 0.01 0.01 0.02 0.02 0.02 0.02
0.03 0.02 0.02 0.02 0.02 0.02 0.02 0.02 0.02 0.02 0.02 0.03 0.03 0.03 0.03 0.04 0.03 0.03 0.03 0.03 0.03 0.02 0.01 0.00 0.00 0.00 0.00 0.00 0.00 0.00 0.00 0.00 0.00 0.00 0.00 0.00 0.01 0.02 0.02 0.02 0.03 0.03 0.03
0.04 0.04 0.04 0.04 0.03 0.03 0.03 0.03 0.03 0.03 0.02 0.01 0.01 0.02 0.02 0.02 0.02 0.02 0.02 0.02 0.02 0.01 0.01 0.00 0.00 0.00 0.00 0.00 0.00 0.00 0.00 0.00 0.00 0.00 0.00 0.00 0.01 0.01 0.01 0.01 0.02 0.03 0.03
0.09 0.09 0.08 0.08 0.06 0.04 0.03 0.03 0.02 0.02 0.01 0.01 0.01 0.01 0.01 0.02 0.02 0.02 0.02 0.02 0.02 0.01 0.01 0.00 0.00 0.00 0.00 0.00 0.00 0.00 0.00 0.00 0.00 0.00 0.01 0.01 0.00 0.00 0.00 0.00 0.00 0.01 0.02
0.18 0.15 0.12 0.10 0.07 0.05 0.04 0.03 0.02 0.01 0.02 0.01 0.01 0.01 0.01 0.01 0.01 0.01 0.02 0.02 0.02 0.01 0.01 0.00 0.00 0.00 0.00 0.00 0.00 0.00 0.00 0.00 0.01 0.01 0.01 0.01 0.01 0.01 0.01 0.01 0.01 0.02 0.01
0.22 0.17 0.13 0.10 0.08 0.06 0.05 0.03 0.02 0.01 0.01 0.01 0.01 0.01 0.01 0.01 0.01 0.01 0.01 0.01 0.01 0.01 0.01 0.00 0.00 0.00 0.00 0.00 0.00 0.00 0.00 0.00 0.00 0.01 0.01 0.01 0.02 0.01 0.00 0.01 0.02 0.03 0.03
0.22 0.16 0.11 0.08 0.06 0.06 0.04 0.02 0.01 0.01 0.01 0.01 0.01 0.01 0.01 0.01 0.00 0.01 0.01 0.01 0.01 0.01 0.00 0.00 0.00 0.01 0.00 0.00 0.00 0.00 0.00 0.00 0.00 0.01 0.01 0.01 0.02 0.01 0.00 0.01 0.03 0.03 0.04
0.18 0.13 0.09 0.08 0.07 0.06 0.04 0.03 0.02 0.01 0.01 0.01 0.01 0.01 0.01 0.01 0.00 0.01 0.00 0.00 0.00 0.00 0.00 0.00 0.00 0.00 0.00 0.00 0.00 0.00 0.00 0.00 0.01 0.01 0.02 0.01 0.00 0.00 0.00 0.01 0.03 0.03 0.03
0.14 0.13 0.10 0.09 0.08 0.07 0.06 0.05 0.03 0.02 0.01 0.01 0.01 0.01 0.01 0.01 0.01 0.01 0.00 0.00 0.00 0.00 0.00 0.00 0.00 0.00 0.00 0.00 0.00 0.00 0.00 0.00 0.01 0.01 0.02 0.02 0.00 0.00 0.00 0.01 0.03 0.02 0.01
0.13 0.12 0.10 0.08 0.06 0.04 0.04 0.04 0.03 0.02 0.01 0.01 0.00 0.01 0.01 0.00 0.00 0.01 0.00 0.00 0.01 0.00 0.00 0.00 0.00 0.00 0.00 0.00 0.00 0.00 0.00 0.00 0.01 0.01 0.01 0.01 0.00 0.00 0.00 0.01 0.01 0.00 0.01
0.06 0.06 0.05 0.04 0.03 0.02 0.02 0.02 0.01 0.01 0.01 0.01 0.01 0.01 0.01 0.01 0.01 0.01 0.00 0.01 0.01 0.00 0.00 0.00 0.00 0.00 0.00 0.00 0.00 0.00 0.00 0.00 0.01 0.01 0.01 0.00 0.00 0.01 0.02 0.01 0.00 0.01 0.04
0.03 0.02 0.02 0.02 0.02 0.02 0.01 0.01 0.01 0.01 0.01 0.01 0.01 0.01 0.01 0.01 0.01 0.01 0.00 0.00 0.00 0.00 0.00 0.00 0.00 0.00 0.01 0.01 0.00 0.00 0.01 0.01 0.01 0.02 0.02 0.01 0.01 0.01 0.02 0.02 0.03 0.05 0.04
0.02 0.02 0.02 0.02 0.01 0.01 0.01 0.01 0.01 0.01 0.01 0.01 0.01 0.01 0.01 0.01 0.01 0.00 0.00 0.00 0.00 0.00 0.00 0.00 0.00 0.00 0.01 0.00 0.00 0.00 0.00 0.00 0.01 0.01 0.03 0.04 0.03 0.03 0.03 0.04 0.04 0.05 0.04
0.01 0.01 0.01 0.01 0.01 0.01 0.01 0.01 0.00 0.01 0.01 0.02 0.01 0.01 0.01 0.00 0.00 0.00 0.00 0.00 0.00 0.00 0.00 0.00 0.00 0.00 0.00 0.00 0.00 0.00 0.00 0.00 0.00 0.02 0.03 0.02 0.02 0.02 0.02 0.03 0.03 0.04 0.03
MSLP
1010.24 1010.25 1010.31 1010.42 1010.60 1010.85 1011.17 1011.54 1011.97 1012.41 1012.87 1013.31 1013.74 1014.14 1014.50 1014.84 1015.16 1015.46 1015.76 1016.06 1016.35 1016.64 1016.93 1017.22 1017.51 1017.80 1018.09 1018.37 1018.65 1018.90 1019.11 1019.27 1019.35 1019.37 1019.31 1019.21 1019.08 1018.95 1018.85 1018.79 1018.80 1018.87 1018.99
1011.64 1011.53 1011.43 1011.36 1011.33 1011.37 1011.48 1011.68 1011.94 1012.27 1012.64 1013.04 1013.45 1013.87 1014.27 1014.67 1015.06 1015.44 1015.81 1016.17 1016.52 1016.85 1017.16 1017.45 1017.73 1018.00 1018.27 1018.53 1018.79 1019.02 1019.23 1019.39 1019.49 1019.53 1019.51 1019.44 1019.34 1019.23 1019.15 1019.10 1019.10 1019.15 1019.25
1013.10 1012.90 1012.66 1012.42 1012.21 1012.05 1011.98 1011.99 1012.10 1012.30 1012.59 1012.93 1013.33 1013.76 1014.21 1014.67 1015.13 1015.60 1016.05 1016.49 1016.90 1017.27 1017.61 1017.91 1018.18 1018.42 1018.65 1018.87 1019.08 1019.28 1019.45 1019.59 1019.68 1019.72 1019.71 1019.66 1019.58 1019.49 1019.42 1019.38 1019.38 1019.42 1019.50
1014.49 1014.24 1013.91 1013.56 1013.20 1012.90 1012.66 1012.53 1012.51 1012.61 1012.81 1013.11 1013.48 1013.92 1014.40 1014.92 1015.45 1015.99 1016.52 1017.03 1017.50 1017.92 1018.28 1018.59 1018.84 1019.05 1019.24 1019.40 1019.55 1019.69 1019.81 1019.90 1019.97 1019.99 1019.97 1019.92 1019.85 1019.77 1019.69 1019.65 1019.64 1019.66 1019.73
1015.72 1015.46 1015.11 1014.70 1014.28 1013.88 1013.55 1013.32 1013.21 1013.23 1013.37 1013.62 1013.97 1014.41 1014.91 1015.46 1016.05 1016.64 1017.23 1017.79 1018.30 1018.75 1019.12 1019.43 1019.66 1019.84 1019.97 1020.07 1020.16 1020.23 1020.30 1020.34 1020.36 1020.36 1020.32 1020.25 1020.16 1020.07 1019.98 1019.92 1019.88 1019.88 1019.91
1016.72 1016.52 1016.21 1015.82 1015.39 1014.98 1014.62 1014.35 1014.20 1014.17 1014.27 1014.49 1014.82 1015.24 1015.74 1016.30 1016.90 1017.52 1018.13 1018.70 1019.23 1019.68 1020.06 1020.34 1020.55 1020.69 1020.77 1020.82 1020.85 1020.87 1020.87 1020.87 1020.85 1020.80 1020.74 1020.64 1020.53 1020.40 1020.29 1020.18 1020.10 1020.06 1020.05
1017.49 1017.41 1017.19 1016.89 1016.53 1016.17 1015.84 1015.58 1015.43 1015.39 1015.47 1015.67 1015.97 1016.37 1016.85 1017.39 1017.96 1018.56 1019.15 1019.71 1020.21 1020.64 1020.99 1021.25 1021.42 1021.52 1021.56 1021.56 1021.54 1021.51 1021.47 1021.42 1021.36 1021.28 1021.18 1021.06 1020.91 1020.75 1020.59 1020.43 1020.30 1020.20 1020.14
1018.07 1018.14 1018.07 1017.90 1017.66 1017.39 1017.14 1016.95 1016.83 1016.81 1016.88 1017.07 1017.34 1017.70 1018.13 1018.62 1019.14 1019.68 1020.21 1020.71 1021.16 1021.54 1021.85 1022.06 1022.19 1022.26 1022.26 1022.23 1022.17 1022.10 1022.03 1021.95 1021.85 1021.75 1021.62 1021.46 1021.28 1021.08 1020.87 1020.66 1020.48 1020.31 1020.19
1018.54 1018.77 1018.87 1018.85 1018.75 1018.61 1018.46 1018.35 1018.29 1018.30 1018.39 1018.56 1018.80 1019.12 1019.48 1019.90 1020.34 1020.79 1021.23 1021.65 1022.02 1022.34 1022.58 1022.75 1022.84 1022.87 1022.85 1022.79 1022.71 1022.62 1022.51 1022.41 1022.29 1022.15 1022.00 1021.81 1021.60 1021.37 1021.12 1020.86 1020.62 1020.40 1020.22
1018.95 1019.34 1019.60 1019.73 1019.78 1019.76 1019.72 1019.69 1019.69 1019.74 1019.85 1020.01 1020.23 1020.49 1020.79 1021.11 1021.46 1021.81 1022.15 1022.48 1022.76 1023.00 1023.19 1023.31 1023.37 1023.37 1023.34 1023.26 1023.16 1023.05 1022.93 1022.80 1022.65 1022.49 1022.31 1022.10 1021.87 1021.61 1021.33 1021.04 1020.76 1020.49 1020.26
1019.37 1019.90 1020.29 1020.55 1020.71 1020.80 1020.85 1020.90 1020.95 1021.04 1021.15 1021.31 1021.50 1021.71 1021.94 1022.19 1022.44 1022.69 1022.94 1023.17 1023.38 1023.55 1023.69 1023.78 1023.82 1023.81 1023.77 1023.69 1023.58 1023.45 1023.31 1023.15 1022.98 1022.79 1022.58 1022.35 1022.10 1021.82 1021.52 1021.22 1020.91 1020.62 1020.34
1019.85 1020.47 1020.95 1021.30 1021.54 1021.70 1021.81 1021.91 1022.00 1022.11 1022.24 1022.39 1022.55 1022.72 1022.90 1023.07 1023.25 1023.42 1023.59 1023.75 1023.89 1024.02 1024.13 1024.20 1024.24 1024.24 1024.20 1024.12 1024.00 1023.86 1023.69 1023.50 1023.30 1023.08 1022.84 1022.58 1022.31 1022.02 1021.72 1021.41 1021.10 1020.79 1020.50
1020.38 1021.05 1021.57 1021.96 1022.25 1022.44 1022.59 1022.71 1022.82 1022.95 1023.08 1023.22 1023.36 1023.50 1023.64 1023.77 1023.88 1024.00 1024.10 1024.22 1024.33 1024.43 1024.53 1024.61 1024.66 1024.68 1024.66 1024.59 1024.47 1024.31 1024.12 1023.89 1023.65 1023.39 1023.11 1022.83 1022.55 1022.25 1021.95 1021.65 1021.34 1021.03 1020.72
1020.95 1021.63 1022.16 1022.56 1022.84 1023.04 1023.19 1023.32 1023.44 1023.56 1023.69 1023.83 1023.96 1024.08 1024.19 1024.28 1024.36 1024.44 1024.51 1024.60 1024.70 1024.80 1024.91 1025.02 1025.10 1025.14 1025.14 1025.09 1024.97 1024.80 1024.58 1024.32 1024.03 1023.73 1023.42 1023.11 1022.81 1022.51 1022.22 1021.92 1021.62 1021.31 1021.00
1021.54 1022.19 1022.70 1023.07 1023.34 1023.52 1023.66 1023.77 1023.88 1024.00 1024.13 1024.26 1024.39 1024.50 1024.60 1024.67 1024.73 1024.78 1024.84 1024.91 1025.01 1025.12 1025.26 1025.39 1025.51 1025.59 1025.62 1025.58 1025.48 1025.30 1025.05 1024.76 1024.44 1024.10 1023.75 1023.42 1023.10 1022.80 1022.51 1022.22 1021.92 1021.61 1021.29
1022.11 1022.73 1023.20 1023.53 1023.76 1023.91 1024.02 1024.12 1024.22 1024.33 1024.46 1024.59 1024.72 1024.82 1024.91 1024.96 1025.01 1025.05 1025.09 1025.16 1025.26 1025.39 1025.55 1025.71 1025.86 1025.97 1026.03 1026.02 1025.92 1025.74 1025.48 1025.17 1024.82 1024.45 1024.08 1023.73 1023.40 1023.09 1022.79 1022.50 1022.21 1021.89 1021.56
1022.66 1023.22 1023.64 1023.93 1024.12 1024.24 1024.33 1024.41 1024.50 1024.61 1024.74 1024.87 1024.99 1025.09 1025.17 1025.21 1025.24 1025.27 1025.30 1025.36 1025.46 1025.60 1025.77 1025.95 1026.12 1026.26 1026.34 1026.34 1026.26 1026.08 1025.82 1025.49 1025.13 1024.74 1024.36 1023.99 1023.65 1023.34 1023.03 1022.74 1022.43 1022.10 1021.74
1023.16 1023.67 1024.04 1024.29 1024.45 1024.54 1024.61 1024.68 1024.77 1024.88 1025.00 1025.13 1025.25 1025.35 1025.41 1025.45 1025.46 1025.47 1025.49 1025.53 1025.62 1025.75 1025.92 1026.10 1026.29 1026.44 1026.53 1026.54 1026.47 1026.29 1026.04 1025.71 1025.34 1024.95 1024.56 1024.19 1023.84 1023.51 1023.20 1022.88 1022.55 1022.20 1021.80
1023.61 1024.07 1024.40 1024.61 1024.74 1024.82 1024.88 1024.95 1025.03 1025.14 1025.27 1025.39 1025.51 1025.60 1025.65 1025.67 1025.67 1025.66 1025.66 1025.69 1025.76 1025.88 1026.03 1026.21 1026.38 1026.53 1026.63 1026.64 1026.57 1026.40 1026.15 1025.83 1025.46 1025.07 1024.68 1024.30 1023.94 1023.59 1023.26 1022.92 1022.56 1022.17 1021.73
1024.01 1024.42 1024.71 1024.90 1025.01 1025.08 1025.13 1025.20 1025.28 1025.39 1025.52 1025.64 1025.75 1025.83 1025.88 1025.89 1025.88 1025.86 1025.84 1025.86 1025.91 1026.01 1026.15 1026.31 1026.47 1026.61 1026.69 1026.69 1026.61 1026.44 1026.19 1025.86 1025.49 1025.10 1024.70 1024.31 1023.93 1023.57 1023.21 1022.83 1022.44 1022.00 1021.53
1024.36 1024.73 1024.98 1025.14 1025.24 1025.30 1025.35 1025.42 1025.50 1025.61 1025.73 1025.85 1025.95 1026.03 1026.07 1026.08 1026.07 1026.05 1026.04 1026.05 1026.10 1026.19 1026.31 1026.46 1026.60 1026.71 1026.77 1026.76 1026.66 1026.47 1026.20 1025.86 1025.48 1025.07 1024.65 1024.24 1023.84 1023.45 1023.05 1022.64 1022.20 1021.73 1021.22
1024.66 1024.98 1025.20 1025.34 1025.42 1025.47 1025.52 1025.58 1025.66 1025.77 1025.88 1025.99 1026.09 1026.17 1026.22 1026.24 1026.24 1026.24 1026.24 1026.27 1026.34 1026.43 1026.55 1026.69 1026.81 1026.90 1026.93 1026.88 1026.75 1026.52 1026.22 1025.85 1025.44 1025.00 1024.55 1024.10 1023.67 1023.23 1022.80 1022.35 1021.87 1021.36 1020.82
1024.89 1025.17 1025.35 1025.47 1025.54 1025.59 1025.64 1025.69 1025.77 1025.86 1025.96 1026.07 1026.16 1026.24 1026.30 1026.34 1026.37 1026.40 1026.45 1026.51 1026.61 1026.73 1026.86 1027.00 1027.10 1027.16 1027.16 1027.07 1026.88 1026.61 1026.26 1025.84 1025.37 1024.89 1024.39 1023.90 1023.42 1022.95 1022.47 1021.99 1021.48 1020.95 1020.39
1025.06 1025.29 1025.45 1025.55 1025.62 1025.66 1025.71 1025.75 1025.82 1025.90 1025.99 1026.08 1026.17 1026.25 1026.32 1026.39 1026.46 1026.53 1026.63 1026.75 1026.89 1027.04 1027.20 1027.34 1027.44 1027.47 1027.42 1027.28 1027.04 1026.71 1026.29 1025.81 1025.29 1024.74 1024.20 1023.66 1023.13 1022.62 1022.11 1021.60 1021.08 1020.53 1019.97
1025.15 1025.35 1025.49 1025.59 1025.65 1025.70 1025.74 1025.79 1025.84 1025.91 1025.98 1026.06 1026.14 1026.22 1026.30 1026.39 1026.50 1026.63 1026.78 1026.95 1027.14 1027.34 1027.52 1027.67 1027.75 1027.76 1027.67 1027.48 1027.17 1026.77 1026.29 1025.75 1025.16 1024.57 1023.97 1023.39 1022.83 1022.29 1021.76 1021.24 1020.71 1020.16 1019.61
1025.18 1025.36 1025.49 1025.59 1025.66 1025.72 1025.77 1025.82 1025.86 1025.92 1025.97 1026.03 1026.10 1026.17 1026.26 1026.37 1026.51 1026.67 1026.87 1027.09 1027.33 1027.56 1027.76 1027.91 1027.98 1027.96 1027.83 1027.58 1027.22 1026.76 1026.22 1025.62 1024.99 1024.36 1023.73 1023.13 1022.56 1022.01 1021.48 1020.96 1020.44 1019.91 1019.38
Thickness
5757 5760 5762 5764 5764 5763 5761 5759 5757 5755 5752 5749 5745 5741 5737 5734 5730 5726 5723 5720 5718 5716 5713 5710 5707 5702 5700 5696 5694 5692 5690 5688 5687 5685 5684 5685 5684 5683 5680 5678 5677 5675 5672
5744 5747 5751 5753 5754 5753 5753 5753 5752 5751 5749 5747 5743 5740 5735 5730 5725 5719 5715 5713 5710 5708 5705 5702 5700 5696 5693 5689 5686 5682 5680 5679 5678 5677 5675 5673 5672 5672 5671 5669 5667 5666 5664
5732 5734 5737 5740 5743 5743 5744 5745 5746 5745 5744 5742 5739 5734 5728 5723 5718 5713 5708 5704 5701 5699 5695 5693 5690 5687 5684 5680 5677 5674 5672 5670 5669 5668 5667 5664 5663 5664 5661 5658 5656 5654 5652
5721 5723 5725 5727 5730 5733 5735 5736 5737 5737 5737 5736 5733 5729 5723 5716 5712 5707 5700 5695 5691 5688 5685 5682 5679 5675 5672 5670 5668 5667 5666 5663 5661 5658 5656 5655 5655 5652 5650 5648 5645 5641 5639
5708 5710 5712 5714 5717 5721 5724 5725 5726 5726 5726 5725 5724 5720 5714 5708 5701 5695 5689 5683 5679 5676 5673 5670 5667 5664 5661 5659 5657 5656 5655 5653 5651 5648 5645 5643 5642 5641 5639 5635 5633 5630 5627
5695 5697 5699 5702 5705 5708 5710 5712 5713 5712 5713 5712 5712 5708 5704 5697 5689 5683 5676 5671 5666 5662 5659 5657 5654 5652 5649 5648 5646 5644 5641 5639 5636 5634 5633 5631 5629 5627 5625 5622 5619 5616 5614
5682 5683 5685 5686 5689 5692 5694 5697 5698 5697 5697 5697 5695 5693 5689 5683 5677 5671 5664 5658 5653 5649 5645 5643 5640 5638 5636 5635 5632 5629 5626 5624 5621 5619 5617 5616 5614 5612 5610 5608 5605 5602 5600
5669 5669 5670 5672 5673 5675 5678 5680 5681 5680 5679 5678 5676 5674 5672 5667 5662 5656 5651 5644 5640 5635 5631 5628 5626 5624 5622 5620 5617 5615 5611 5609 5606 5603 5600 5600 5598 5596 5595 5592 5590 5588 5588
5656 5656 5656 5657 5658 5659 5660 5663 5663 5662 5661 5659 5658 5655 5652 5648 5643 5638 5634 5628 5624 5620 5616 5614 5611 5609 5606 5602 5601 5598 5595 5593 5591 5588 5585 5584 5582 5579 5577 5575 5572 5570 5571
5644 5643 5643 5643 5643 5644 5644 5645 5645 5644 5642 5641 5639 5636 5633 5629 5625 5621 5616 5612 5607 5604 5601 5599 5596 5592 5589 5585 5583 5582 5579 5577 5575 5571 5568 5565 5565 5561 5559 5557 5554 5552 5549
5632 5631 5630 5629 5629 5629 5629 5628 5627 5625 5624 5622 5620 5617 5614 5611 5607 5603 5599 5596 5592 5588 5585 5582 5579 5576 5573 5570 5568 5566 5563 5561 5559 5555 5552 5548 5545 5544 5542 5538 5535 5532 5528
5621 5618 5617 5616 5615 5613 5612 5611 5609 5608 5605 5603 5601 5598 5595 5593 5590 5586 5582 5579 5576 5573 5569 5566 5563 5561 5558 5555 5553 5550 5548 5546 5543 5539 5535 5531 5529 5524 5522 5519 5516 5513 5509
5608 5605 5603 5601 5599 5597 5596 5594 5592 5590 5588 5587 5584 5581 5578 5576 5572 5569 5566 5563 5560 5557 5555 5552 5549 5546 5543 5541 5537 5535 5532 5529 5526 5522 5518 5514 5511 5507 5505 5500 5499 5496 5494
5595 5592 5588 5586 5583 5582 5580 5578 5576 5575 5573 5572 5569 5566 5563 5560 5557 5554 5551 5548 5545 5543 5540 5537 5534 5531 5528 5525 5522 5520 5517 5513 5509 5505 5501 5498 5494 5490 5487 5485 5482 5480 5478
5584 5580 5576 5572 5569 5567 5565 5563 5562 5560 5558 5557 5554 5551 5548 5546 5543 5540 5537 5534 5532 5529 5526 5524 5521 5517 5513 5507 5504 5504 5503 5499 5495 5491 5487 5482 5476 5470 5468 5468 5466 5465 5465
5573 5568 5564 5560 5557 5555 5553 5551 5549 5547 5545 5543 5541 5537 5535 5533 5530 5527 5524 5522 5519 5517 5514 5511 5508 5504 5498 5489 5486 5486 5488 5485 5482 5478 5474 5470 5466 5460 5455 5452 5450 5448 5451
5562 5557 5553 5548 5544 5542 5541 5539 5537 5534 5533 5531 5529 5526 5524 5522 5519 5517 5514 5511 5508 5505 5502 5499 5496 5491 5483 5476 5474 5472 5473 5474 5469 5465 5462 5461 5457 5451 5449 5447 5444 5444 5441
5550 5545 5541 5536 5533 5531 5529 5527 5526 5525 5523 5521 5518 5516 5514 5512 5509 5506 5503 5500 5497 5495 5491 5488 5484 5480 5471 5465 5462 5460 5463 5463 5459 5456 5453 5449 5446 5442 5437 5439 5441 5442 5441
5538 5534 5530 5527 5524 5521 5520 5519 5517 5516 5514 5512 5509 5507 5505 5502 5499 5496 5493 5490 5487 5484 5482 5478 5473 5469 5462 5455 5452 5450 5456 5456 5453 5450 5446 5442 5440 5432 5429 5432 5436 5438 5437
5527 5523 5520 5518 5515 5513 5512 5511 5509 5508 5506 5503 5500 5497 5495 5493 5490 5486 5484 5481 5478 5475 5473 5468 5464 5460 5455 5447 5444 5441 5450 5450 5448 5446 5443 5436 5432 5427 5425 5428 5432 5434 5434
5518 5515 5512 5510 5507 5506 5504 5503 5501 5499 5497 5494 5491 5489 5487 5484 5481 5477 5474 5472 5470 5467 5464 5461 5458 5453 5447 5442 5437 5435 5439 5440 5441 5441 5439 5436 5428 5426 5425 5424 5428 5428 5427
5511 5508 5506 5503 5501 5499 5498 5496 5493 5491 5488 5486 5484 5482 5479 5478 5474 5470 5467 5465 5463 5461 5459 5456 5453 5449 5444 5437 5434 5431 5430 5428 5433 5435 5435 5433 5427 5426 5426 5427 5426 5426 5426
5506 5503 5500 5497 5495 5493 5492 5489 5486 5484 5482 5480 5478 5475 5473 5470 5467 5464 5462 5460 5457 5457 5455 5452 5449 5445 5441 5436 5431 5430 5429 5428 5430 5432 5429 5428 5428 5428 5431 5429 5428 5429 5433
5501 5498 5496 5493 5490 5487 5485 5482 5480 5478 5476 5474 5472 5470 5468 5465 5461 5458 5457 5455 5453 5451 5448 5446 5443 5440 5437 5434 5431 5430 5433 5431 5432 5433 5432 5431 5431 5431 5430 5432 5434 5435 5435
5497 5495 5492 5489 5485 5482 5479 5477 5475 5473 5471 5470 5468 5466 5464 5461 5456 5453 5448 5446 5440 5436 5435 5437 5435 5433 5432 5424 5419 5420 5426 5426 5428 5427 5433 5435 5437 5437 5437 5437 5437 5436 5437
5494 5491 5488 5485 5481 5478 5475 5472 5471 5469 5467 5466 5465 5463 5461 5457 5455 5451 5445 5434 5432 5427 5425 5423 5422 5425 5421 5420 5420 5420 5421 5422 5424 5428 5434 5435 5436 5436 5436 5437 5437 5437 5437